Location: Bucquoy
(50.1391°N, 2.7097°E)
Time: 08:06:57
(UTC+00:00)

Cosmos 1300 Rocket - Pass Details

Date: 06 May 2021
Orbit: 601 x 627 km, 82.5° (Epoch: 21 June)

Event Time Altitude Azimuth Distance (km) Brightness Sun altitude
Rises 00:54:42 0° 349° (N) 2,924 8.0 -21.6°
Reaches altitude 10° 00:56:57 10° 349° (NNW) 2,009 7.0 -21.5°
Maximum altitude 01:01:25 84° 261° (W) 632 3.4 -21.3°
Enters shadow 01:02:13 59° 182° (S) 718 3.5 -21.2°
